Time,TemperatureF,DewpointF,PressureIn,WindDirection,WindDirectionDegrees,WindSpeedMPH,WindSpeedGustMPH,Humidity,HourlyPrecipIn,Conditions,Clouds,dailyrainin,SoftwareType,DateUTC
2013-08-31 00:03:00,74.0,70.6,29.88,North,0,0.0,0.0,89,0.00,,---,0.00,VWS V14.01,2013-08-31 05:03:00,
2013-08-31 00:08:00,74.0,70.6,29.91,North,0,0.0,0.0,89,0.00,,---,0.00,VWS V14.01,2013-08-31 05:08:00,
2013-08-31 00:13:00,74.0,70.6,29.91,North,0,0.0,0.0,89,0.00,,---,0.00,VWS V14.01,2013-08-31 05:13:00,
2013-08-31 00:18:00,74.0,70.6,29.91,North,0,0.0,0.0,89,0.00,,---,0.00,VWS V14.01,2013-08-31 05:18:00,
2013-08-31 00:23:00,74.0,70.6,29.91,North,0,0.0,0.0,89,0.00,,---,0.00,VWS V14.01,2013-08-31 05:23:00,
2013-08-31 00:28:00,74.0,70.6,29.91,North,0,0.0,0.0,89,0.00,,---,0.00,VWS V14.01,2013-08-31 05:28:00,
2013-08-31 00:33:00,74.0,70.6,29.91,North,0,0.0,0.0,89,0.00,,---,0.00,VWS V14.01,2013-08-31 05:33:00,
2013-08-31 00:38:00,74.0,70.6,29.91,North,0,0.0,0.0,89,0.00,,---,0.00,VWS V14.01,2013-08-31 05:38:00,
2013-08-31 00:43:00,74.0,70.6,29.91,North,0,0.0,0.0,89,0.00,,---,0.00,VWS V14.01,2013-08-31 05:43:00,
2013-08-31 00:48:00,74.0,70.6,29.91,North,0,0.0,0.0,89,0.00,,---,0.00,VWS V14.01,2013-08-31 05:48:00,
2013-08-31 00:53:00,74.0,70.6,29.88,North,0,0.0,0.0,89,0.00,,---,0.00,VWS V14.01,2013-08-31 05:53:00,
2013-08-31 00:58:00,74.0,70.6,29.88,North,0,0.0,0.0,89,0.00,,---,0.00,VWS V14.01,2013-08-31 05:58:00,
2013-08-31 01:03:00,74.0,70.6,29.88,North,0,0.0,0.0,89,0.00,,---,0.00,VWS V14.01,2013-08-31 06:03:00,
2013-08-31 01:08:00,73.0,69.9,29.88,North,0,0.0,0.0,90,0.00,,---,0.00,VWS V14.01,2013-08-31 06:08:00,
2013-08-31 01:13:00,73.0,69.9,29.88,North,0,0.0,0.0,90,0.00,,---,0.00,VWS V14.01,2013-08-31 06:13:00,
2013-08-31 01:18:00,73.0,69.9,29.88,North,0,0.0,0.0,90,0.00,,---,0.00,VWS V14.01,2013-08-31 06:18:00,
2013-08-31 01:23:00,73.0,69.9,29.88,North,0,0.0,0.0,90,0.00,,---,0.00,VWS V14.01,2013-08-31 06:23:00,
2013-08-31 01:28:00,73.0,69.9,29.88,North,0,0.0,0.0,90,0.00,,---,0.00,VWS V14.01,2013-08-31 06:28:00,
2013-08-31 01:33:00,73.0,69.9,29.88,North,0,0.0,0.0,90,0.00,,---,0.00,VWS V14.01,2013-08-31 06:33:00,
2013-08-31 01:38:00,73.0,69.9,29.88,North,0,0.0,0.0,90,0.00,,---,0.00,VWS V14.01,2013-08-31 06:38:00,
2013-08-31 01:43:00,73.0,69.9,29.88,North,0,0.0,0.0,90,0.00,,---,0.00,VWS V14.01,2013-08-31 06:43:00,
2013-08-31 01:48:00,73.0,69.9,29.88,North,0,0.0,0.0,90,0.00,,---,0.00,VWS V14.01,2013-08-31 06:48:00,
2013-08-31 01:53:00,73.0,69.9,29.88,North,0,0.0,0.0,90,0.00,,---,0.00,VWS V14.01,2013-08-31 06:53:00,
2013-08-31 01:58:00,73.0,69.9,29.88,North,0,0.0,0.0,90,0.00,,---,0.00,VWS V14.01,2013-08-31 06:58:00,
2013-08-31 02:03:00,73.0,69.9,29.88,North,0,0.0,0.0,90,0.00,,---,0.00,VWS V14.01,2013-08-31 07:03:00,
2013-08-31 02:08:00,73.0,69.9,29.88,North,0,0.0,0.0,90,0.00,,---,0.00,VWS V14.01,2013-08-31 07:08:00,
2013-08-31 02:13:00,72.1,69.3,29.88,North,0,0.0,0.0,91,0.00,,---,0.00,VWS V14.01,2013-08-31 07:13:00,
2013-08-31 02:18:00,71.9,69.1,29.88,North,0,0.0,0.0,91,0.00,,---,0.00,VWS V14.01,2013-08-31 07:18:00,
2013-08-31 02:23:00,71.9,69.1,29.88,North,0,0.0,0.0,91,0.00,,---,0.00,VWS V14.01,2013-08-31 07:23:00,
2013-08-31 02:28:00,71.9,69.1,29.88,North,0,0.0,0.0,91,0.00,,---,0.00,VWS V14.01,2013-08-31 07:28:00,
2013-08-31 02:33:00,71.9,69.1,29.88,North,0,0.0,0.0,91,0.00,,---,0.00,VWS V14.01,2013-08-31 07:33:00,
2013-08-31 02:38:00,71.7,68.9,29.88,North,0,0.0,0.0,91,0.00,,---,0.00,VWS V14.01,2013-08-31 07:38:00,
2013-08-31 02:43:00,71.5,68.8,29.88,North,0,0.0,0.0,91,0.00,,---,0.00,VWS V14.01,2013-08-31 07:43:00,
2013-08-31 02:48:00,71.5,68.8,29.88,North,0,0.0,0.0,91,0.00,,---,0.00,VWS V14.01,2013-08-31 07:48:00,
2013-08-31 02:53:00,71.5,68.8,29.88,North,0,0.0,0.0,91,0.00,,---,0.00,VWS V14.01,2013-08-31 07:53:00,
2013-08-31 02:58:00,71.5,68.8,29.88,North,0,0.0,0.0,91,0.00,,---,0.00,VWS V14.01,2013-08-31 07:58:00,
2013-08-31 03:03:00,71.5,68.8,29.88,North,0,0.0,0.0,91,0.00,,---,0.00,VWS V14.01,2013-08-31 08:03:00,
2013-08-31 03:08:00,71.3,68.6,29.88,North,0,0.0,0.0,91,0.00,,---,0.00,VWS V14.01,2013-08-31 08:08:00,
2013-08-31 03:13:00,71.3,68.6,29.88,North,0,0.0,0.0,91,0.00,,---,0.00,VWS V14.01,2013-08-31 08:13:00,
2013-08-31 03:18:00,71.3,68.6,29.88,North,0,0.0,0.0,91,0.00,,---,0.00,VWS V14.01,2013-08-31 08:18:00,
2013-08-31 03:23:00,71.3,68.6,29.91,North,0,0.0,0.0,91,0.00,,---,0.00,VWS V14.01,2013-08-31 08:23:00,
2013-08-31 03:28:00,71.3,68.6,29.91,North,0,0.0,0.0,91,0.00,,---,0.00,VWS V14.01,2013-08-31 08:28:00,
2013-08-31 03:33:00,71.3,68.6,29.91,North,0,0.0,0.0,91,0.00,,---,0.00,VWS V14.01,2013-08-31 08:33:00,
2013-08-31 03:38:00,71.3,68.6,29.91,North,0,0.0,0.0,91,0.00,,---,0.00,VWS V14.01,2013-08-31 08:38:00,
2013-08-31 03:43:00,71.3,68.6,29.91,North,0,0.0,0.0,91,0.00,,---,0.00,VWS V14.01,2013-08-31 08:43:00,
2013-08-31 03:48:00,71.3,68.6,29.91,North,0,0.0,0.0,91,0.00,,---,0.00,VWS V14.01,2013-08-31 08:48:00,
2013-08-31 03:53:00,71.3,68.6,29.91,North,0,0.0,0.0,91,0.00,,---,0.00,VWS V14.01,2013-08-31 08:53:00,
2013-08-31 03:58:00,70.8,68.1,29.91,North,0,0.0,0.0,91,0.00,,---,0.00,VWS V14.01,2013-08-31 08:58:00,
2013-08-31 04:03:00,70.8,68.1,29.91,North,0,0.0,0.0,91,0.00,,---,0.00,VWS V14.01,2013-08-31 09:03:00,
2013-08-31 04:08:00,70.8,68.1,29.91,North,0,0.0,0.0,91,0.00,,---,0.00,VWS V14.01,2013-08-31 09:08:00,
2013-08-31 04:13:00,70.8,68.4,29.91,North,0,0.0,0.0,92,0.00,,---,0.00,VWS V14.01,2013-08-31 09:13:00,
2013-08-31 04:18:00,70.8,68.4,29.91,North,0,0.0,0.0,92,0.00,,---,0.00,VWS V14.01,2013-08-31 09:18:00,
2013-08-31 04:23:00,70.8,68.4,29.88,North,0,0.0,0.0,92,0.00,,---,0.00,VWS V14.01,2013-08-31 09:23:00,
2013-08-31 04:28:00,70.8,68.4,29.88,North,0,0.0,0.0,92,0.00,,---,0.00,VWS V14.01,2013-08-31 09:28:00,
2013-08-31 04:33:00,70.6,68.2,29.88,North,0,0.0,0.0,92,0.00,,---,0.00,VWS V14.01,2013-08-31 09:33:00,
2013-08-31 04:38:00,70.6,68.2,29.91,North,0,0.0,0.0,92,0.00,,---,0.00,VWS V14.01,2013-08-31 09:38:00,
2013-08-31 04:43:00,70.6,68.2,29.91,North,0,0.0,0.0,92,0.00,,---,0.00,VWS V14.01,2013-08-31 09:43:00,
2013-08-31 04:48:00,70.6,68.2,29.91,North,0,0.0,0.0,92,0.00,,---,0.00,VWS V14.01,2013-08-31 09:48:00,
2013-08-31 04:53:00,70.6,68.5,29.91,North,0,0.0,0.0,93,0.00,,---,0.00,VWS V14.01,2013-08-31 09:53:00,
2013-08-31 04:58:00,70.4,68.0,29.91,North,0,0.0,0.0,92,0.00,,---,0.00,VWS V14.01,2013-08-31 09:58:00,
2013-08-31 05:03:00,70.4,68.0,29.91,North,0,0.0,0.0,92,0.00,,---,0.00,VWS V14.01,2013-08-31 10:03:00,
2013-08-31 05:08:00,70.3,67.8,29.91,North,0,0.0,0.0,92,0.00,,---,0.00,VWS V14.01,2013-08-31 10:08:00,
2013-08-31 05:13:00,70.3,67.8,29.91,North,0,0.0,0.0,92,0.00,,---,0.00,VWS V14.01,2013-08-31 10:13:00,
2013-08-31 05:18:00,70.3,67.8,29.91,North,0,0.0,0.0,92,0.00,,---,0.00,VWS V14.01,2013-08-31 10:18:00,
2013-08-31 05:23:00,70.3,67.8,29.91,North,0,0.0,0.0,92,0.00,,---,0.00,VWS V14.01,2013-08-31 10:23:00,
2013-08-31 05:28:00,70.1,67.7,29.91,North,0,0.0,0.0,92,0.00,,---,0.00,VWS V14.01,2013-08-31 10:28:00,
2013-08-31 05:33:00,70.1,67.7,29.91,North,0,0.0,0.0,92,0.00,,---,0.00,VWS V14.01,2013-08-31 10:33:00,
2013-08-31 05:38:00,70.1,67.7,29.91,North,0,0.0,0.0,92,0.00,,---,0.00,VWS V14.01,2013-08-31 10:38:00,
2013-08-31 05:43:00,70.1,67.7,29.91,North,0,0.0,0.0,92,0.00,,---,0.00,VWS V14.01,2013-08-31 10:43:00,
2013-08-31 05:48:00,70.1,67.7,29.91,North,0,0.0,0.0,92,0.00,,---,0.00,VWS V14.01,2013-08-31 10:48:00,
2013-08-31 05:53:00,69.9,67.5,29.91,North,0,0.0,0.0,92,0.00,,---,0.00,VWS V14.01,2013-08-31 10:53:00,
2013-08-31 05:58:00,69.9,67.8,29.91,North,0,0.0,0.0,93,0.00,,---,0.00,VWS V14.01,2013-08-31 10:58:00,
2013-08-31 06:03:00,69.7,67.3,29.91,North,0,0.0,0.0,92,0.00,,---,0.00,VWS V14.01,2013-08-31 11:03:00,
2013-08-31 06:08:00,69.7,67.3,29.91,North,0,0.0,0.0,92,0.00,,---,0.00,VWS V14.01,2013-08-31 11:08:00,
2013-08-31 06:13:00,69.7,67.3,29.91,North,0,0.0,0.0,92,0.00,,---,0.00,VWS V14.01,2013-08-31 11:13:00,
2013-08-31 06:18:00,69.7,67.6,29.91,North,0,0.0,0.0,93,0.00,,---,0.00,VWS V14.01,2013-08-31 11:18:00,
2013-08-31 06:23:00,69.5,67.1,29.91,North,0,0.0,0.0,92,0.00,,---,0.00,VWS V14.01,2013-08-31 11:23:00,
2013-08-31 06:28:00,69.5,67.4,29.91,North,0,0.0,0.0,93,0.00,,---,0.00,VWS V14.01,2013-08-31 11:28:00,
2013-08-31 06:33:00,69.5,67.4,29.91,North,0,0.0,0.0,93,0.00,,---,0.00,VWS V14.01,2013-08-31 11:33:00,
2013-08-31 06:38:00,69.5,67.4,29.91,North,0,0.0,0.0,93,0.00,,---,0.00,VWS V14.01,2013-08-31 11:38:00,
2013-08-31 06:43:00,69.5,67.4,29.91,North,0,0.0,0.0,93,0.00,,---,0.00,VWS V14.01,2013-08-31 11:43:00,
2013-08-31 06:48:00,69.5,67.4,29.91,North,0,0.0,0.0,93,0.00,,---,0.00,VWS V14.01,2013-08-31 11:48:00,
2013-08-31 06:53:00,69.5,67.4,29.91,North,0,0.0,0.0,93,0.00,,---,0.00,VWS V14.01,2013-08-31 11:53:00,
2013-08-31 06:58:00,69.5,67.4,29.91,North,0,0.0,0.0,93,0.00,,---,0.00,VWS V14.01,2013-08-31 11:58:00,
2013-08-31 07:03:00,69.5,67.4,29.91,North,0,0.0,0.0,93,0.00,,---,0.00,VWS V14.01,2013-08-31 12:03:00,
2013-08-31 07:08:00,69.5,67.4,29.91,North,0,0.0,0.0,93,0.00,,---,0.00,VWS V14.01,2013-08-31 12:08:00,
2013-08-31 07:13:00,69.5,67.4,29.91,North,0,0.0,0.0,93,0.00,,---,0.00,VWS V14.01,2013-08-31 12:13:00,
2013-08-31 07:18:00,69.7,67.6,29.91,North,0,0.0,0.0,93,0.00,,---,0.00,VWS V14.01,2013-08-31 12:18:00,
2013-08-31 07:23:00,69.7,67.6,29.91,North,0,0.0,0.0,93,0.00,,---,0.00,VWS V14.01,2013-08-31 12:23:00,
2013-08-31 07:28:00,69.9,67.8,29.91,North,0,0.0,0.0,93,0.00,,---,0.00,VWS V14.01,2013-08-31 12:28:00,
2013-08-31 07:33:00,69.9,67.8,29.91,North,0,0.0,0.0,93,0.00,,---,0.00,VWS V14.01,2013-08-31 12:33:00,
2013-08-31 07:38:00,70.1,68.0,29.91,North,0,0.0,0.0,93,0.00,,---,0.00,VWS V14.01,2013-08-31 12:38:00,
2013-08-31 07:43:00,70.3,68.1,29.94,North,0,0.0,0.0,93,0.00,,---,0.00,VWS V14.01,2013-08-31 12:43:00,
2013-08-31 07:48:00,70.3,68.1,29.94,North,0,0.0,0.0,93,0.00,,---,0.00,VWS V14.01,2013-08-31 12:48:00,
2013-08-31 07:53:00,70.4,68.3,29.94,North,0,0.0,0.0,93,0.00,,---,0.00,VWS V14.01,2013-08-31 12:53:00,
2013-08-31 07:58:00,70.6,68.5,29.94,North,0,0.0,0.0,93,0.00,,---,0.00,VWS V14.01,2013-08-31 12:58:00,
2013-08-31 08:03:00,71.0,68.9,29.94,North,0,0.0,0.0,93,0.00,,---,0.00,VWS V14.01,2013-08-31 13:03:00,
2013-08-31 08:08:00,71.2,69.0,29.94,North,0,0.0,0.0,93,0.00,,---,0.00,VWS V14.01,2013-08-31 13:08:00,
2013-08-31 08:13:00,71.5,69.7,29.94,North,0,0.0,0.0,94,0.00,,---,0.00,VWS V14.01,2013-08-31 13:13:00,
2013-08-31 08:18:00,71.9,70.1,29.94,North,0,0.0,0.0,94,0.00,,---,0.00,VWS V14.01,2013-08-31 13:18:00,
2013-08-31 08:24:00,72.4,70.6,29.94,North,0,0.0,0.0,94,0.00,,---,0.00,VWS V14.01,2013-08-31 13:24:00,
2013-08-31 08:29:00,72.8,71.0,29.94,North,0,0.0,0.0,94,0.00,,---,0.00,VWS V14.01,2013-08-31 13:29:00,
2013-08-31 08:34:00,73.5,71.7,29.94,NNW,338,1.1,1.1,94,0.00,,---,0.00,VWS V14.01,2013-08-31 13:34:00,
2013-08-31 08:39:00,74.0,72.2,29.94,NNW,338,0.0,0.0,94,0.00,,---,0.00,VWS V14.01,2013-08-31 13:39:00,
2013-08-31 08:44:00,74.4,72.6,29.94,NNW,338,0.0,0.0,94,0.00,,---,0.00,VWS V14.01,2013-08-31 13:44:00,
2013-08-31 08:49:00,75.5,73.3,29.94,WNW,292,3.1,3.1,93,0.00,,---,0.00,VWS V14.01,2013-08-31 13:49:00,
2013-08-31 08:54:00,76.2,73.1,29.94,NNW,338,0.0,0.0,90,0.00,,---,0.00,VWS V14.01,2013-08-31 13:54:00,
2013-08-31 08:59:00,76.6,73.4,29.94,NW,315,2.7,2.7,90,0.00,,---,0.00,VWS V14.01,2013-08-31 13:59:00,
2013-08-31 09:04:00,77.5,72.6,29.94,NNE,22,1.6,2.7,85,0.00,,---,0.00,VWS V14.01,2013-08-31 14:04:00,
2013-08-31 09:09:00,78.2,72.9,29.94,NNW,338,2.5,2.5,84,0.00,,---,0.00,VWS V14.01,2013-08-31 14:09:00,
2013-08-31 09:14:00,78.7,72.0,29.94,North,0,2.2,2.2,80,0.00,,---,0.00,VWS V14.01,2013-08-31 14:14:00,
2013-08-31 09:19:00,79.6,72.5,29.94,WNW,292,0.0,0.0,79,0.00,,---,0.00,VWS V14.01,2013-08-31 14:19:00,
2013-08-31 09:24:00,80.2,72.3,29.97,NNW,338,0.0,1.6,77,0.00,,---,0.00,VWS V14.01,2013-08-31 14:24:00,
2013-08-31 09:29:00,80.3,71.7,29.97,NNE,22,0.0,0.0,75,0.00,,---,0.00,VWS V14.01,2013-08-31 14:29:00,
2013-08-31 09:34:00,80.3,71.7,29.97,NNE,22,0.0,0.0,75,0.00,,---,0.00,VWS V14.01,2013-08-31 14:34:00,
2013-08-31 09:39:00,81.4,73.1,29.94,NW,315,0.0,2.7,76,0.00,,---,0.00,VWS V14.01,2013-08-31 14:39:00,
2013-08-31 09:44:00,82.1,72.2,29.94,North,0,1.3,2.5,72,0.00,,---,0.00,VWS V14.01,2013-08-31 14:44:00,
2013-08-31 09:49:00,82.3,72.0,29.94,WNW,292,1.6,1.6,71,0.00,,---,0.00,VWS V14.01,2013-08-31 14:49:00,
2013-08-31 09:54:00,82.9,70.8,29.94,North,0,2.7,2.7,67,0.00,,---,0.00,VWS V14.01,2013-08-31 14:54:00,
2013-08-31 09:59:00,83.2,71.1,29.94,NW,315,0.0,2.2,67,0.00,,---,0.00,VWS V14.01,2013-08-31 14:59:00,
2013-08-31 10:04:00,83.6,71.5,29.94,WNW,292,0.0,2.5,67,0.00,,---,0.00,VWS V14.01,2013-08-31 15:04:00,
2013-08-31 10:09:00,83.9,70.9,29.94,WNW,292,2.9,2.9,65,0.00,,---,0.00,VWS V14.01,2013-08-31 15:09:00,
2013-08-31 10:14:00,84.1,71.5,29.94,WSW,248,0.0,0.0,66,0.00,,---,0.00,VWS V14.01,2013-08-31 15:14:00,
2013-08-31 10:19:00,84.5,71.0,29.94,WSW,248,0.9,1.3,64,0.00,,---,0.00,VWS V14.01,2013-08-31 15:19:00,
2013-08-31 10:24:00,84.8,71.3,29.94,North,0,0.0,0.0,64,0.00,,---,0.00,VWS V14.01,2013-08-31 15:24:00,
2013-08-31 10:29:00,85.0,71.5,29.94,North,0,0.0,0.0,64,0.00,,---,0.00,VWS V14.01,2013-08-31 15:29:00,
2013-08-31 10:34:00,85.4,71.4,29.94,NW,315,0.9,2.5,63,0.00,,---,0.00,VWS V14.01,2013-08-31 15:34:00,
2013-08-31 10:39:00,85.6,71.1,29.94,NNE,22,0.0,0.0,62,0.00,,---,0.00,VWS V14.01,2013-08-31 15:39:00,
2013-08-31 10:44:00,85.9,72.3,29.94,West,270,0.0,0.0,64,0.00,,---,0.00,VWS V14.01,2013-08-31 15:44:00,
2013-08-31 10:49:00,86.1,70.6,29.94,North,0,2.5,2.5,60,0.00,,---,0.00,VWS V14.01,2013-08-31 15:49:00,
2013-08-31 10:54:00,86.5,69.9,29.94,WNW,292,2.0,2.0,58,0.00,,---,0.00,VWS V14.01,2013-08-31 15:54:00,
2013-08-31 10:59:00,86.6,70.1,29.94,WNW,292,1.3,2.2,58,0.00,,---,0.00,VWS V14.01,2013-08-31 15:59:00,
2013-08-31 11:04:00,86.8,68.7,29.94,WNW,292,1.3,1.3,55,0.00,,---,0.00,VWS V14.01,2013-08-31 16:04:00,
2013-08-31 11:09:00,87.2,68.5,29.94,North,0,0.9,1.1,54,0.00,,---,0.00,VWS V14.01,2013-08-31 16:09:00,
2013-08-31 11:14:00,87.5,70.4,29.94,NE,45,0.9,0.9,57,0.00,,---,0.00,VWS V14.01,2013-08-31 16:14:00,
2013-08-31 11:19:00,87.5,69.9,29.94,NNW,338,2.2,2.2,56,0.00,,---,0.00,VWS V14.01,2013-08-31 16:19:00,
2013-08-31 11:24:00,87.7,70.1,29.94,SSW,202,1.6,2.5,56,0.00,,---,0.00,VWS V14.01,2013-08-31 16:24:00,
2013-08-31 11:29:00,88.1,69.9,29.94,North,0,0.0,0.0,55,0.00,,---,0.00,VWS V14.01,2013-08-31 16:29:00,
2013-08-31 11:34:00,88.1,69.9,29.94,West,270,0.0,0.0,55,0.00,,---,0.00,VWS V14.01,2013-08-31 16:34:00,
2013-08-31 11:39:00,88.3,70.1,29.94,NW,315,0.0,0.0,55,0.00,,---,0.00,VWS V14.01,2013-08-31 16:39:00,
2013-08-31 11:44:00,88.6,69.9,29.94,SSE,158,0.0,0.0,54,0.00,,---,0.00,VWS V14.01,2013-08-31 16:44:00,
2013-08-31 11:49:00,89.0,69.6,29.94,East,90,1.1,2.2,53,0.00,,---,0.00,VWS V14.01,2013-08-31 16:49:00,
2013-08-31 11:54:00,89.2,66.9,29.91,NW,315,2.0,2.5,48,0.00,,---,0.00,VWS V14.01,2013-08-31 16:54:00,
2013-08-31 11:59:00,89.3,67.7,29.91,NE,45,1.6,2.0,49,0.00,,---,0.00,VWS V14.01,2013-08-31 16:59:00,
2013-08-31 12:04:00,89.3,66.5,29.91,NW,315,0.0,0.0,47,0.00,,---,0.00,VWS V14.01,2013-08-31 17:04:00,
2013-08-31 12:09:00,89.9,68.8,29.91,SE,135,1.1,1.1,50,0.00,,---,0.00,VWS V14.01,2013-08-31 17:09:00,
2013-08-31 12:14:00,90.1,67.1,29.91,North,0,2.0,2.7,47,0.00,,---,0.00,VWS V14.01,2013-08-31 17:14:00,
2013-08-31 12:19:00,90.2,67.3,29.91,North,0,0.0,0.0,47,0.00,,---,0.00,VWS V14.01,2013-08-31 17:19:00,
2013-08-31 12:24:00,90.8,69.0,29.91,SSW,202,2.5,2.5,49,0.00,,---,0.00,VWS V14.01,2013-08-31 17:24:00,
2013-08-31 12:29:00,91.1,68.7,29.91,SE,135,3.4,3.4,48,0.00,,---,0.00,VWS V14.01,2013-08-31 17:29:00,
2013-08-31 12:34:00,91.7,68.6,29.91,North,0,2.0,2.0,47,0.00,,---,0.00,VWS V14.01,2013-08-31 17:34:00,
2013-08-31 12:39:00,91.5,67.2,29.91,NE,45,2.7,2.7,45,0.00,,---,0.00,VWS V14.01,2013-08-31 17:39:00,
2013-08-31 12:44:00,91.3,68.9,29.91,SSE,158,2.2,2.7,48,0.00,,---,0.00,VWS V14.01,2013-08-31 17:44:00,
2013-08-31 12:49:00,90.4,69.8,29.91,ESE,112,2.0,2.0,51,0.00,,---,0.00,VWS V14.01,2013-08-31 17:49:00,
2013-08-31 12:54:00,89.7,68.6,29.91,North,0,2.5,2.5,50,0.00,,---,0.00,VWS V14.01,2013-08-31 17:54:00,
2013-08-31 12:59:00,90.2,69.1,29.91,NE,45,1.3,2.9,50,0.00,,---,0.00,VWS V14.01,2013-08-31 17:59:00,
2013-08-31 13:04:00,90.2,70.8,29.91,SSW,202,1.3,1.6,53,0.00,,---,0.00,VWS V14.01,2013-08-31 18:04:00,
2013-08-31 13:09:00,89.9,68.8,29.91,SW,225,0.0,0.0,50,0.00,,---,0.00,VWS V14.01,2013-08-31 18:09:00,
2013-08-31 13:14:00,89.7,69.2,29.91,SE,135,0.0,2.2,51,0.00,,---,0.00,VWS V14.01,2013-08-31 18:14:00,
2013-08-31 13:19:00,89.5,70.1,29.91,ESE,112,0.0,0.0,53,0.00,,---,0.00,VWS V14.01,2013-08-31 18:19:00,
2013-08-31 13:24:00,89.9,69.9,29.91,ESE,112,0.0,0.0,52,0.00,,---,0.00,VWS V14.01,2013-08-31 18:24:00,
2013-08-31 13:29:00,89.5,68.4,29.91,NW,315,0.0,0.0,50,0.00,,---,0.00,VWS V14.01,2013-08-31 18:29:00,
2013-08-31 13:34:00,89.0,68.5,29.91,South,180,0.0,0.0,51,0.00,,---,0.00,VWS V14.01,2013-08-31 18:34:00,
2013-08-31 13:39:00,88.6,68.8,29.91,ENE,68,0.0,0.0,52,0.00,,---,0.00,VWS V14.01,2013-08-31 18:39:00,
2013-08-31 13:44:00,88.6,69.3,29.91,ESE,112,0.0,0.0,53,0.00,,---,0.00,VWS V14.01,2013-08-31 18:44:00,
2013-08-31 13:50:00,88.8,70.0,29.91,East,90,0.0,0.0,54,0.00,,---,0.00,VWS V14.01,2013-08-31 18:50:00,
2013-08-31 13:55:00,88.8,70.0,29.91,SSE,158,1.6,1.6,54,0.00,,---,0.00,VWS V14.01,2013-08-31 18:55:00,
2013-08-31 14:00:00,89.7,72.4,29.91,ENE,68,1.1,2.0,57,0.00,,---,0.00,VWS V14.01,2013-08-31 19:00:00,
2013-08-31 14:05:00,90.4,71.5,29.91,West,270,0.9,2.7,54,0.00,,---,0.00,VWS V14.01,2013-08-31 19:05:00,
2013-08-31 14:10:00,91.3,69.5,29.88,SE,135,2.9,3.1,49,0.00,,---,0.00,VWS V14.01,2013-08-31 19:10:00,
2013-08-31 14:15:00,92.4,69.9,29.88,NE,45,1.6,1.6,48,0.00,,---,0.00,VWS V14.01,2013-08-31 19:15:00,
2013-08-31 14:20:00,92.4,69.9,29.88,WNW,292,0.0,1.3,48,0.00,,---,0.00,VWS V14.01,2013-08-31 19:20:00,
2013-08-31 14:25:00,92.4,69.9,29.88,SSW,202,0.0,2.9,48,0.00,,---,0.00,VWS V14.01,2013-08-31 19:25:00,
2013-08-31 14:30:00,92.4,69.9,29.88,WSW,248,2.2,2.2,48,0.00,,---,0.00,VWS V14.01,2013-08-31 19:30:00,
2013-08-31 14:35:00,93.8,67.3,29.88,NNW,338,0.0,0.0,42,0.00,,---,0.00,VWS V14.01,2013-08-31 19:35:00,
2013-08-31 14:40:00,94.0,66.8,29.88,West,270,0.0,0.0,41,0.00,,---,0.00,VWS V14.01,2013-08-31 19:40:00,
2013-08-31 14:45:00,94.4,66.4,29.88,WNW,292,1.6,1.6,40,0.00,,---,0.00,VWS V14.01,2013-08-31 19:45:00,
2013-08-31 14:50:00,93.8,66.6,29.88,NW,315,2.5,2.5,41,0.00,,---,0.00,VWS V14.01,2013-08-31 19:50:00,
2013-08-31 14:55:00,93.5,65.6,29.85,WNW,292,3.1,3.6,40,0.00,,---,0.00,VWS V14.01,2013-08-31 19:55:00,
2013-08-31 15:00:00,92.8,65.6,29.85,NW,315,1.6,1.6,41,0.00,,---,0.00,VWS V14.01,2013-08-31 20:00:00,
2013-08-31 15:05:00,91.9,66.9,29.85,WSW,248,2.2,2.2,44,0.00,,---,0.00,VWS V14.01,2013-08-31 20:05:00,
2013-08-31 15:10:00,91.0,67.3,29.85,WSW,248,0.0,0.0,46,0.00,,---,0.00,VWS V14.01,2013-08-31 20:10:00,
2013-08-31 15:15:00,90.4,66.8,29.85,NE,45,0.0,0.0,46,0.00,,---,0.00,VWS V14.01,2013-08-31 20:15:00,
2013-08-31 15:20:00,89.7,68.6,29.85,NNE,22,0.0,0.0,50,0.00,,---,0.00,VWS V14.01,2013-08-31 20:20:00,
2013-08-31 15:25:00,90.2,69.1,29.85,NNE,22,0.0,0.0,50,0.00,,---,0.00,VWS V14.01,2013-08-31 20:25:00,
2013-08-31 15:30:00,90.4,70.4,29.85,SSE,158,2.0,2.0,52,0.00,,---,0.00,VWS V14.01,2013-08-31 20:30:00,
2013-08-31 15:35:00,90.6,70.6,29.85,ESE,112,0.0,0.0,52,0.00,,---,0.00,VWS V14.01,2013-08-31 20:35:00,
2013-08-31 15:40:00,90.1,68.3,29.85,NE,45,2.5,2.5,49,0.00,,---,0.00,VWS V14.01,2013-08-31 20:40:00,
2013-08-31 15:45:00,89.7,68.0,29.85,North,0,0.0,0.0,49,0.00,,---,0.00,VWS V14.01,2013-08-31 20:45:00,
2013-08-31 15:50:00,89.2,68.7,29.85,NNW,338,0.0,0.0,51,0.00,,---,0.00,VWS V14.01,2013-08-31 20:50:00,
2013-08-31 15:55:00,88.6,68.8,29.85,North,0,0.0,0.0,52,0.00,,---,0.00,VWS V14.01,2013-08-31 20:55:00,
2013-08-31 16:00:00,88.3,69.5,29.85,NE,45,0.0,0.0,54,0.00,,---,0.00,VWS V14.01,2013-08-31 21:00:00,
2013-08-31 16:05:00,88.1,70.4,29.85,NE,45,0.0,0.0,56,0.00,,---,0.00,VWS V14.01,2013-08-31 21:05:00,
2013-08-31 16:10:00,88.1,70.9,29.85,NE,45,0.0,0.0,57,0.00,,---,0.00,VWS V14.01,2013-08-31 21:10:00,
2013-08-31 16:15:00,87.7,70.6,29.85,NE,45,0.0,0.0,57,0.00,,---,0.00,VWS V14.01,2013-08-31 21:15:00,
2013-08-31 16:20:00,87.5,71.5,29.85,ENE,68,0.0,0.0,59,0.00,,---,0.00,VWS V14.01,2013-08-31 21:20:00,
2013-08-31 16:25:00,87.2,70.6,29.85,NE,45,0.0,0.0,58,0.00,,---,0.00,VWS V14.01,2013-08-31 21:25:00,
2013-08-31 16:30:00,87.2,70.1,29.85,NE,45,0.0,0.0,57,0.00,,---,0.00,VWS V14.01,2013-08-31 21:30:00,
2013-08-31 16:35:00,86.8,70.3,29.85,ENE,68,0.0,0.0,58,0.00,,---,0.00,VWS V14.01,2013-08-31 21:35:00,
2013-08-31 16:40:00,86.3,70.3,29.85,NE,45,0.9,1.1,59,0.00,,---,0.00,VWS V14.01,2013-08-31 21:40:00,
2013-08-31 16:45:00,85.9,70.4,29.85,NE,45,0.0,0.0,60,0.00,,---,0.00,VWS V14.01,2013-08-31 21:45:00,
2013-08-31 16:50:00,85.6,70.6,29.85,NE,45,0.0,0.0,61,0.00,,---,0.00,VWS V14.01,2013-08-31 21:50:00,
2013-08-31 16:56:00,85.6,70.6,29.85,NE,45,0.0,0.0,61,0.00,,---,0.00,VWS V14.01,2013-08-31 21:56:00,
2013-08-31 17:01:00,85.7,70.8,29.85,NE,45,0.0,0.0,61,0.00,,---,0.00,VWS V14.01,2013-08-31 22:01:00,
2013-08-31 17:05:00,86.1,71.1,29.85,NE,45,0.0,0.0,61,0.00,,---,0.00,VWS V14.01,2013-08-31 22:05:00,
2013-08-31 17:11:00,86.3,71.3,29.85,NE,45,0.0,0.0,61,0.00,,---,0.00,VWS V14.01,2013-08-31 22:11:00,
2013-08-31 17:15:00,86.5,71.9,29.85,NE,45,0.0,0.0,62,0.00,,---,0.00,VWS V14.01,2013-08-31 22:15:00,
2013-08-31 17:21:00,86.6,72.6,29.85,NE,45,0.0,0.0,63,0.00,,---,0.00,VWS V14.01,2013-08-31 22:21:00,
2013-08-31 17:26:00,86.6,72.6,29.82,NE,45,0.0,0.0,63,0.00,,---,0.00,VWS V14.01,2013-08-31 22:26:00,
2013-08-31 17:31:00,86.6,72.6,29.82,NE,45,0.0,0.0,63,0.00,,---,0.00,VWS V14.01,2013-08-31 22:31:00,
2013-08-31 17:36:00,86.5,72.4,29.82,NE,45,0.0,0.0,63,0.00,,---,0.00,VWS V14.01,2013-08-31 22:36:00,
2013-08-31 17:41:00,86.5,72.4,29.85,NE,45,0.0,0.0,63,0.00,,---,0.00,VWS V14.01,2013-08-31 22:41:00,
2013-08-31 17:46:00,86.5,72.4,29.85,NE,45,0.0,0.0,63,0.00,,---,0.00,VWS V14.01,2013-08-31 22:46:00,
2013-08-31 17:51:00,86.5,72.8,29.85,NE,45,0.0,0.0,64,0.00,,---,0.00,VWS V14.01,2013-08-31 22:51:00,
2013-08-31 17:56:00,86.5,72.8,29.85,NE,45,0.0,0.0,64,0.00,,---,0.00,VWS V14.01,2013-08-31 22:56:00,
2013-08-31 18:01:00,86.1,73.0,29.85,NE,45,0.0,0.0,65,0.00,,---,0.00,VWS V14.01,2013-08-31 23:01:00,
2013-08-31 18:06:00,85.9,73.7,29.85,ENE,68,0.0,0.0,67,0.00,,---,0.00,VWS V14.01,2013-08-31 23:06:00,
2013-08-31 18:11:00,85.7,74.0,29.85,ESE,112,0.0,0.0,68,0.00,,---,0.00,VWS V14.01,2013-08-31 23:11:00,
2013-08-31 18:16:00,85.6,73.8,29.85,SSE,158,0.0,0.0,68,0.00,,---,0.00,VWS V14.01,2013-08-31 23:16:00,
2013-08-31 18:21:00,85.6,73.8,29.85,SSE,158,0.0,0.0,68,0.00,,---,0.00,VWS V14.01,2013-08-31 23:21:00,
2013-08-31 18:26:00,85.2,73.0,29.82,East,90,0.0,0.0,67,0.00,,---,0.00,VWS V14.01,2013-08-31 23:26:00,
2013-08-31 18:31:00,85.2,72.1,29.82,ENE,68,0.0,0.0,65,0.00,,---,0.00,VWS V14.01,2013-08-31 23:31:00,
2013-08-31 18:36:00,84.8,72.2,29.82,ENE,68,0.0,0.0,66,0.00,,---,0.00,VWS V14.01,2013-08-31 23:36:00,
2013-08-31 18:41:00,84.7,72.1,29.82,ENE,68,0.0,0.0,66,0.00,,---,0.00,VWS V14.01,2013-08-31 23:41:00,
2013-08-31 18:46:00,84.3,71.7,29.82,ENE,68,0.0,0.0,66,0.00,,---,0.00,VWS V14.01,2013-08-31 23:46:00,
2013-08-31 18:51:00,84.1,71.1,29.82,ENE,68,0.0,0.0,65,0.00,,---,0.00,VWS V14.01,2013-08-31 23:51:00,
2013-08-31 18:56:00,83.8,70.8,29.85,ENE,68,0.0,0.0,65,0.00,,---,0.00,VWS V14.01,2013-08-31 23:56:00,
2013-08-31 19:01:00,83.4,70.9,29.85,ENE,68,0.0,0.0,66,0.00,,---,0.00,VWS V14.01,2013-09-01 00:01:00,
2013-08-31 19:06:00,83.0,71.4,29.85,ENE,68,0.0,0.0,68,0.00,,---,0.00,VWS V14.01,2013-09-01 00:06:00,
2013-08-31 19:11:00,82.7,71.1,29.85,ENE,68,0.0,0.0,68,0.00,,---,0.00,VWS V14.01,2013-09-01 00:11:00,
2013-08-31 19:16:00,82.3,70.7,29.85,ENE,68,0.0,0.0,68,0.00,,---,0.00,VWS V14.01,2013-09-01 00:16:00,
2013-08-31 19:21:00,81.8,71.1,29.85,ENE,68,0.0,0.0,70,0.00,,---,0.00,VWS V14.01,2013-09-01 00:21:00,
2013-08-31 19:26:00,81.6,71.3,29.85,ENE,68,0.0,0.0,71,0.00,,---,0.00,VWS V14.01,2013-09-01 00:26:00,
2013-08-31 19:31:00,81.2,70.9,29.85,ENE,68,0.0,0.0,71,0.00,,---,0.00,VWS V14.01,2013-09-01 00:31:00,
2013-08-31 19:36:00,80.9,71.4,29.85,ENE,68,0.0,0.0,73,0.00,,---,0.00,VWS V14.01,2013-09-01 00:36:00,
2013-08-31 19:41:00,80.7,71.7,29.85,ENE,68,0.0,0.0,74,0.00,,---,0.00,VWS V14.01,2013-09-01 00:41:00,
2013-08-31 19:46:00,80.3,71.3,29.85,East,90,0.0,0.0,74,0.00,,---,0.00,VWS V14.01,2013-09-01 00:46:00,
2013-08-31 19:51:00,80.2,71.5,29.85,East,90,0.0,0.0,75,0.00,,---,0.00,VWS V14.01,2013-09-01 00:51:00,
2013-08-31 19:56:00,79.8,71.6,29.85,East,90,0.0,0.0,76,0.00,,---,0.00,VWS V14.01,2013-09-01 00:56:00,
2013-08-31 20:01:00,79.6,71.8,29.85,East,90,0.0,0.0,77,0.00,,---,0.00,VWS V14.01,2013-09-01 01:01:00,
2013-08-31 20:06:00,79.4,71.6,29.85,East,90,0.0,0.0,77,0.00,,---,0.00,VWS V14.01,2013-09-01 01:06:00,
2013-08-31 20:11:00,79.3,71.4,29.85,East,90,0.0,0.0,77,0.00,,---,0.00,VWS V14.01,2013-09-01 01:11:00,
2013-08-31 20:16:00,79.1,71.6,29.85,East,90,0.0,0.0,78,0.00,,---,0.00,VWS V14.01,2013-09-01 01:16:00,
2013-08-31 20:21:00,78.9,71.5,29.85,East,90,0.0,0.0,78,0.00,,---,0.00,VWS V14.01,2013-09-01 01:21:00,
2013-08-31 20:26:00,78.7,71.3,29.85,East,90,0.0,0.0,78,0.00,,---,0.00,VWS V14.01,2013-09-01 01:26:00,
2013-08-31 20:31:00,78.7,71.3,29.85,East,90,0.0,0.0,78,0.00,,---,0.00,VWS V14.01,2013-09-01 01:31:00,
2013-08-31 20:36:00,78.5,71.5,29.85,East,90,0.0,0.0,79,0.00,,---,0.00,VWS V14.01,2013-09-01 01:36:00,
2013-08-31 20:41:00,78.4,71.3,29.85,East,90,0.0,0.0,79,0.00,,---,0.00,VWS V14.01,2013-09-01 01:41:00,
2013-08-31 20:46:00,78.2,71.5,29.85,East,90,0.0,0.0,80,0.00,,---,0.00,VWS V14.01,2013-09-01 01:46:00,
2013-08-31 20:51:00,78.0,71.3,29.85,SSE,158,0.0,0.0,80,0.00,,---,0.00,VWS V14.01,2013-09-01 01:51:00,
2013-08-31 20:56:00,77.8,71.2,29.85,SE,135,0.0,0.0,80,0.00,,---,0.00,VWS V14.01,2013-09-01 01:56:00,
2013-08-31 21:01:00,77.6,71.3,29.85,SE,135,0.0,0.0,81,0.00,,---,0.00,VWS V14.01,2013-09-01 02:01:00,
2013-08-31 21:06:00,77.5,71.2,29.85,SE,135,0.0,0.0,81,0.00,,---,0.00,VWS V14.01,2013-09-01 02:06:00,
2013-08-31 21:11:00,77.5,71.2,29.85,SE,135,0.0,0.0,81,0.00,,---,0.00,VWS V14.01,2013-09-01 02:11:00,
2013-08-31 21:16:00,77.3,71.4,29.85,SE,135,0.0,0.0,82,0.00,,---,0.00,VWS V14.01,2013-09-01 02:16:00,
2013-08-31 21:21:00,77.3,71.4,29.85,SE,135,0.0,0.0,82,0.00,,---,0.00,VWS V14.01,2013-09-01 02:21:00,
2013-08-31 21:26:00,77.1,71.5,29.85,SE,135,0.0,0.0,83,0.00,,---,0.00,VWS V14.01,2013-09-01 02:26:00,
2013-08-31 21:31:00,77.1,71.5,29.85,SE,135,0.0,0.0,83,0.00,,---,0.00,VWS V14.01,2013-09-01 02:31:00,
2013-08-31 21:36:00,76.7,71.2,29.85,SE,135,0.0,0.0,83,0.00,,---,0.00,VWS V14.01,2013-09-01 02:36:00,
2013-08-31 21:41:00,76.7,71.2,29.88,NW,315,0.0,0.0,83,0.00,,---,0.00,VWS V14.01,2013-09-01 02:41:00,
2013-08-31 21:46:00,76.6,71.0,29.88,NW,315,0.0,0.0,83,0.00,,---,0.00,VWS V14.01,2013-09-01 02:46:00,
2013-08-31 21:51:00,76.6,71.0,29.88,NW,315,0.0,0.0,83,0.00,,---,0.00,VWS V14.01,2013-09-01 02:51:00,
2013-08-31 21:56:00,76.6,71.0,29.88,NW,315,0.0,0.0,83,0.00,,---,0.00,VWS V14.01,2013-09-01 02:56:00,
2013-08-31 22:01:00,76.6,71.0,29.88,NW,315,0.0,0.0,83,0.00,,---,0.00,VWS V14.01,2013-09-01 03:01:00,
2013-08-31 22:06:00,76.4,71.5,29.88,NW,315,0.0,0.0,85,0.00,,---,0.00,VWS V14.01,2013-09-01 03:06:00,
2013-08-31 22:11:00,76.4,71.5,29.88,NW,315,0.0,0.0,85,0.00,,---,0.00,VWS V14.01,2013-09-01 03:11:00,
2013-08-31 22:16:00,76.0,71.5,29.88,NW,315,0.9,0.9,86,0.00,,---,0.00,VWS V14.01,2013-09-01 03:16:00,
2013-08-31 22:21:00,76.0,71.5,29.88,SSE,158,0.0,0.0,86,0.00,,---,0.00,VWS V14.01,2013-09-01 03:21:00,
2013-08-31 22:26:00,75.8,71.4,29.88,SSE,158,0.0,0.0,86,0.00,,---,0.00,VWS V14.01,2013-09-01 03:26:00,
2013-08-31 22:31:00,75.7,71.2,29.88,SSE,158,0.0,0.0,86,0.00,,---,0.00,VWS V14.01,2013-09-01 03:31:00,
2013-08-31 22:36:00,75.7,71.5,29.88,SSE,158,0.0,0.0,87,0.00,,---,0.00,VWS V14.01,2013-09-01 03:36:00,
2013-08-31 22:41:00,75.5,71.3,29.88,SSE,158,0.0,0.0,87,0.00,,---,0.00,VWS V14.01,2013-09-01 03:41:00,
2013-08-31 22:46:00,75.5,71.3,29.88,SSE,158,0.0,0.0,87,0.00,,---,0.00,VWS V14.01,2013-09-01 03:46:00,
2013-08-31 22:51:00,75.5,71.3,29.88,SSW,202,0.0,0.0,87,0.00,,---,0.00,VWS V14.01,2013-09-01 03:51:00,
2013-08-31 22:56:00,75.3,71.2,29.88,South,180,0.0,0.0,87,0.00,,---,0.00,VWS V14.01,2013-09-01 03:56:00,
2013-08-31 23:01:00,75.3,71.2,29.88,South,180,0.0,0.0,87,0.00,,---,0.00,VWS V14.01,2013-09-01 04:01:00,
2013-08-31 23:02:00,75.3,71.2,29.88,South,180,0.0,0.0,87,0.00,,---,0.00,VWS V14.01,2013-09-01 04:02:00,
2013-08-31 23:03:00,75.3,71.2,29.88,South,180,0.0,0.0,87,0.00,,---,0.00,VWS V14.01,2013-09-01 04:03:00,
2013-08-31 23:08:00,75.1,71.0,29.85,South,180,0.0,0.0,87,0.00,,---,0.00,VWS V14.01,2013-09-01 04:08:00,
2013-08-31 23:13:00,75.1,71.3,29.85,South,180,1.3,1.3,88,0.00,,---,0.00,VWS V14.01,2013-09-01 04:13:00,
2013-08-31 23:18:00,75.1,71.3,29.85,South,180,1.3,1.3,88,0.00,,---,0.00,VWS V14.01,2013-09-01 04:18:00,
2013-08-31 23:23:00,75.1,71.3,29.85,South,180,0.0,0.0,88,0.00,,---,0.00,VWS V14.01,2013-09-01 04:23:00,
2013-08-31 23:28:00,75.1,71.3,29.85,South,180,0.0,0.0,88,0.00,,---,0.00,VWS V14.01,2013-09-01 04:28:00,
2013-08-31 23:33:00,75.1,71.3,29.85,South,180,0.0,0.0,88,0.00,,---,0.00,VWS V14.01,2013-09-01 04:33:00,
2013-08-31 23:38:00,75.1,71.3,29.85,South,180,0.0,0.0,88,0.00,,---,0.00,VWS V14.01,2013-09-01 04:38:00,
2013-08-31 23:43:00,75.1,71.3,29.85,South,180,0.0,0.0,88,0.00,,---,0.00,VWS V14.01,2013-09-01 04:43:00,
2013-08-31 23:48:00,75.1,71.3,29.85,South,180,0.0,0.0,88,0.00,,---,0.00,VWS V14.01,2013-09-01 04:48:00,
2013-08-31 23:53:00,75.1,71.3,29.85,South,180,0.0,0.0,88,0.00,,---,0.00,VWS V14.01,2013-09-01 04:53:00,
2013-08-31 23:58:00,75.1,71.3,29.85,South,180,0.0,0.0,88,0.00,,---,0.00,VWS V14.01,2013-09-01 04:58:00,